RH
15 12 10 10 7 8 8 8 17 21 24 24 21 17 12 15 19 19 18 17 18 14 11 19 19 16 15 13 13 13 13 13 13 13 14 13 14 13 14 17 16 20 23 24 22
13 12 10 8 8 8 7 17 20 25 24 22 18 15 12 19 20 21 18 19 21 17 14 19 19 16 14 13 12 13 13 13 14 15 14 14 15 16 15 12 14 12 10 9 6
17 12 9 9 8 8 15 21 25 26 24 21 17 16 13 18 16 18 18 18 21 22 20 18 16 17 14 15 14 13 14 13 13 14 16 18 17 14 11 8 13 20 21 19 12
17 15 12 12 11 15 19 25 27 26 24 20 18 16 14 14 22 18 17 18 22 22 22 18 15 13 14 14 11 10 18 20 21 13 13 17 14 19 18 12 18 20 21 21 21
17 16 14 15 16 18 24 27 27 28 23 22 18 15 16 18 18 18 15 17 17 19 17 14 13 11 10 8 8 20 23 24 25 23 23 22 21 22 20 20 18 21 21 22 22
17 17 16 16 18 22 28 28 29 24 28 24 18 14 13 13 16 16 14 17 19 20 17 12 9 13 7 10 18 23 24 26 28 29 28 22 20 20 20 24 25 19 23 22 24
17 16 17 19 22 27 27 25 25 30 22 20 12 11 14 11 12 12 14 15 13 13 10 9 16 19 18 20 21 23 24 26 26 26 29 24 22 23 22 28 26 18 22 26 25
21 22 21 22 26 25 23 22 24 22 20 16 15 13 10 9 8 7 7 8 9 9 14 19 20 21 22 23 24 24 24 25 26 27 29 32 22 26 24 26 25 24 19 24 27
26 23 24 26 24 21 20 18 20 20 18 14 11 10 7 6 5 4 4 9 15 14 21 22 22 16 21 26 22 14 20 18 25 31 31 32 26 20 26 21 21 20 20 25 28
27 26 25 21 19 17 16 19 20 18 12 9 10 12 8 7 5 4 7 12 20 21 23 23 21 21 21 26 17 20 23 22 21 26 24 19 21 23 18 21 21 24 23 22 25
31 26 23 21 18 17 20 19 18 19 19 22 23 10 6 6 6 4 4 11 20 26 28 27 28 31 34 32 24 24 28 25 17 20 22 30 30 22 21 23 26 26 22 18 20
27 24 20 18 17 16 15 17 21 21 15 15 8 6 6 6 6 6 6 11 16 21 22 21 27 32 31 18 24 25 24 22 21 27 31 32 28 26 26 26 26 24 24 18 20
22 20 17 16 16 15 14 17 19 19 9 10 10 9 10 13 12 10 8 8 12 16 19 24 31 31 23 26 31 28 27 30 31 26 37 35 30 28 27 26 26 27 27 29 31
20 18 17 17 16 17 18 18 11 11 19 23 20 23 18 18 20 17 13 17 20 20 24 30 30 33 26 31 35 33 32 31 31 34 41 36 35 35 30 31 32 31 34 39 42
17 17 18 19 21 20 28 24 13 14 40 30 30 32 28 20 24 23 25 18 17 17 25 33 31 34 30 40 38 33 30 33 36 36 46 42 37 41 37 36 36 38 43 45 47
17 16 17 17 15 14 23 15 13 34 40 41 39 38 40 34 30 37 29 31 31 38 39 41 39 35 38 44 40 35 34 36 43 46 50 48 46 50 45 48 47 47 47 49 51
19 15 14 15 13 15 15 15 35 42 40 42 35 42 44 40 39 40 35 32 33 34 30 38 37 40 46 44 45 44 32 36 49 64 63 47 46 57 58 56 58 60 58 57 57
24 22 16 16 13 12 17 32 42 46 48 43 39 44 44 43 45 46 44 43 43 37 40 40 42 47 49 52 54 58 47 53 51 85 72 44 49 63 53 51 60 61 58 56 54
33 27 23 23 19 14 21 68 48 48 46 43 42 45 44 44 45 48 45 47 50 44 42 44 43 51 53 48 56 59 55 59 62 68 75 53 50 58 53 56 64 62 58 56 61
37 38 32 24 23 22 30 49 49 49 47 44 43 46 48 48 48 48 50 55 55 52 46 46 45 45 43 57 62 62 61 62 60 84 80 62 49 46 64 69 64 60 62 64 73
39 36 35 33 27 27 39 42 50 50 44 42 46 45 49 49 50 48 53 58 60 55 51 49 50 42 40 57 63 67 66 68 68 74 92 97 66 53 58 56 61 60 63 64 69
44 39 35 34 35 37 42 44 48 45 42 38 44 47 47 48 51 53 57 60 64 59 44 47 40 43 29 64 66 68 70 69 60 72 81 87 72 52 64 59 61 57 57 64 76
49 41 38 36 38 39 44 45 38 36 36 38 39 42 43 45 50 58 63 59 58 59 53 44 47 41 35 62 67 65 70 71 74 87 85 84 66 56 65 63 64 71 76 82 85
59 43 41 40 45 49 47 42 43 47 44 42 40 41 43 47 51 59 60 60 60 58 57 56 54 51 46 39 45 52 57 66 80 98 90 78 72 54 65 70 64 65 92 92 84
50 47 45 47 51 46 50 44 46 42 40 41 42 42 45 46 47 47 52 59 60 55 44 49 47 43 45 39 34 40 44 48 67 63 100 54 71 60 66 72 73 77 78 67 58
43 43 47 50 49 47 49 48 47 47 49 47 45 46 45 40 45 44 42 39 38 37 47 53 51 47 40 45 50 47 42 46 44 47 53 59 56 52 68 74 83 77 76 72 70
28 31 44 48 56 58 55 53 49 50 52 50 46 47 45 50 46 45 44 45 48 45 48 54 49 52 50 56 60 46 45 44 52 54 53 58 51 69 74 73 71 83 70 76 72
Wind_Speed
16 18 18 17 15 14 12 11 12 13 13 14 15 16 16 18 17 18 18 15 14 14 18 18 16 15 16 14 15 16 16 11 9 7 7 3 1 5 7 5 3 3 3 3 4
14 15 15 16 14 12 12 14 16 15 16 16 16 18 18 19 18 17 16 15 13 12 16 16 14 13 17 15 13 14 10 7 5 3 1 1 3 8 8 5 4 4 5 6 6
12 13 15 14 13 13 15 18 18 18 17 17 18 18 19 20 18 17 17 16 14 13 15 12 10 12 13 12 13 12 6 7 4 1 3 4 8 10 9 4 11 15 18 17 13
11 13 14 15 15 17 19 20 20 19 17 17 17 18 18 19 13 16 15 15 13 11 11 11 8 4 6 10 8 16 16 12 11 8 8 5 4 4 6 6 10 10 10 12 13
12 14 15 16 19 21 22 22 21 19 16 15 17 19 18 12 14 16 14 13 11 8 6 7 4 2 3 9 16 14 10 7 5 4 3 4 3 3 4 6 2 4 5 6 9
13 16 18 20 22 23 23 22 20 18 16 15 15 17 12 11 14 13 10 9 8 8 6 6 7 9 11 12 9 7 6 3 0 3 3 3 1 2 3 12 7 1 2 4 4
17 20 22 23 24 23 23 21 19 17 17 15 17 17 16 12 12 11 10 10 9 10 8 11 13 9 10 9 7 6 5 1 2 2 4 5 3 2 8 12 8 4 2 2 4
21 22 23 23 23 22 21 20 17 16 16 16 16 14 12 10 9 11 12 11 10 10 11 12 9 6 6 4 2 3 1 3 4 4 5 10 8 8 15 16 13 11 6 4 3
22 23 24 23 22 21 20 18 16 16 14 14 13 12 10 11 11 12 12 13 12 14 13 10 6 3 6 4 2 2 3 7 3 3 6 12 21 15 13 14 10 6 5 9 8
22 22 23 22 21 20 20 20 18 14 14 14 10 8 8 8 7 7 8 11 12 9 6 5 3 1 3 6 3 5 8 10 11 11 12 16 15 13 11 9 1 3 3 6 7
20 21 21 22 21 21 22 18 18 15 13 7 9 8 8 6 5 4 6 10 11 8 7 5 2 3 6 8 7 7 10 13 13 10 18 13 11 7 4 5 3 2 3 3 3
18 18 19 19 19 18 17 16 14 13 11 10 10 8 7 5 4 3 4 7 8 8 7 3 1 3 5 6 6 8 11 12 8 12 15 8 5 7 7 5 1 4 6 2 1
16 16 16 15 15 14 15 13 11 10 11 11 9 8 5 4 5 4 2 3 3 2 1 3 4 4 3 4 6 9 7 13 15 14 6 10 2 3 3 3 5 6 5 4 3
14 14 14 14 15 14 13 10 11 12 6 6 5 7 5 3 5 7 5 2 1 2 6 5 3 5 3 7 11 11 13 14 12 10 1 9 3 9 2 2 5 5 3 4 7
13 14 14 15 14 12 12 9 10 8 4 4 8 7 8 4 3 6 6 4 3 3 2 3 1 2 5 8 12 10 14 16 11 5 3 2 2 6 5 1 1 2 3 5 10
11 12 14 14 13 11 12 11 10 5 4 4 5 6 5 7 7 8 6 3 3 2 2 1 3 3 4 9 12 12 12 6 2 3 1 1 9 5 4 11 7 4 4 9 12
11 12 14 13 12 13 14 10 5 3 9 6 6 7 5 6 5 7 8 3 3 1 3 2 2 3 6 10 5 10 8 2 1 3 3 3 5 6 11 8 3 5 9 14 17
11 11 12 12 12 15 12 10 3 10 7 8 7 6 4 3 6 7 7 9 10 7 3 4 2 3 7 9 8 8 9 4 2 1 6 9 5 9 13 12 8 14 23 29 28
10 10 10 11 13 14 12 5 4 11 10 8 9 5 3 1 1 4 8 9 9 13 7 6 2 3 6 8 5 3 4 3 1 2 3 6 3 8 19 19 20 28 33 31 28
10 10 10 12 13 14 14 6 9 10 10 8 7 4 5 3 1 3 4 5 6 12 11 8 4 2 9 1 2 3 1 1 3 2 3 7 12 8 17 19 26 29 29 30 28
11 11 11 12 12 13 11 7 11 10 8 8 7 5 5 3 2 1 1 3 4 9 8 8 4 3 7 4 7 5 4 0 1 2 3 2 6 10 17 27 23 27 30 34 31
11 10 12 12 12 11 9 9 9 9 8 7 6 5 4 3 3 2 1 1 5 7 10 9 6 8 11 6 5 3 3 2 2 2 6 7 19 16 8 15 31 31 34 31 28
9 9 12 12 10 11 10 10 9 9 8 7 6 5 4 4 2 3 3 3 6 8 11 14 6 8 7 4 3 5 7 18 15 11 11 8 13 10 14 30 29 28 28 28 30
10 10 12 11 8 9 12 12 10 9 7 7 6 6 5 3 2 2 4 5 8 11 14 15 6 7 8 15 20 26 24 25 24 17 19 31 36 29 25 26 29 29 29 32 38
9 8 12 12 11 11 12 11 10 10 8 7 5 4 2 2 3 5 6 8 11 16 14 10 13 17 19 17 20 24 25 23 24 28 23 29 26 28 28 28 30 28 37 42 41
10 7 11 11 11 12 11 11 10 8 6 6 4 4 4 4 6 8 10 11 11 13 13 17 15 20 26 12 16 29 28 19 10 17 23 22 35 31 27 30 28 37 49 49 49
9 10 10 11 13 13 12 10 9 8 7 7 5 5 6 7 8 12 12 10 15 17 16 17 16 14 14 17 22 21 2 13 23 25 28 33 30 28 32 35 33 46 53 48 49
Wind_Direction
236 229 226 225 220 213 209 200 181 165 158 144 139 129 132 131 132 130 129 124 120 127 127 115 110 96 109 130 140 139 128 124 129 119 134 129 36 358 360 18 58 11 27 47 58
224 220 216 215 207 195 198 180 162 161 154 146 138 136 137 138 143 143 137 128 119 123 135 118 119 116 107 106 117 140 119 132 122 88 132 207 272 328 355 348 39 54 65 37 22
211 207 204 199 184 186 181 164 155 162 145 146 143 144 148 152 156 148 148 139 128 125 124 137 136 119 111 103 118 114 103 98 87 285 249 272 299 317 334 12 85 79 71 61 52
196 192 186 180 170 174 164 154 162 148 154 147 145 152 153 162 156 166 160 150 141 143 133 134 130 142 110 97 101 115 100 89 74 71 84 65 48 6 29 59 92 86 73 62 52
181 177 171 163 164 161 154 159 154 153 149 148 156 157 155 162 162 174 174 169 167 156 166 181 161 170 145 116 110 113 104 89 77 76 65 42 18 82 46 51 53 80 67 52 43
159 157 156 156 156 153 157 153 151 152 149 142 149 153 165 151 150 160 160 177 192 177 181 159 148 119 122 124 120 110 123 107 206 274 313 33 99 225 321 324 297 218 10 357 351
147 147 148 149 151 154 151 154 155 152 143 146 148 147 142 145 147 144 162 173 170 166 161 145 136 131 132 129 132 112 133 136 3 311 246 306 223 276 281 310 330 240 242 330 320
136 139 143 148 152 152 154 155 154 148 147 147 144 139 142 137 139 152 156 163 170 170 154 146 142 147 164 141 147 146 139 322 4 7 251 301 250 298 296 292 293 291 275 281 296
136 142 147 148 149 151 153 156 155 154 144 144 140 128 128 137 150 153 160 168 162 167 168 165 171 127 104 128 159 40 11 355 343 307 275 301 297 317 292 288 302 271 274 285 265
140 144 146 149 153 156 159 155 151 143 140 133 122 114 116 118 138 150 165 174 177 179 182 176 189 110 71 30 31 353 350 349 342 314 298 311 314 320 294 295 18 287 291 315 266
146 146 149 153 155 155 156 153 148 139 130 115 115 103 120 119 135 182 191 202 195 205 215 229 251 29 6 1 352 337 333 328 329 321 317 329 340 8 313 261 245 211 325 311 263
153 158 160 161 159 159 156 154 146 134 118 119 108 101 97 103 95 117 173 201 205 221 237 226 40 31 355 348 339 322 318 320 325 325 323 327 15 53 77 105 70 351 347 15 77
162 167 168 159 155 154 155 155 152 139 117 99 93 81 85 84 59 63 129 182 187 181 127 150 108 25 345 341 347 340 335 326 321 323 322 327 112 41 68 38 341 334 5 29 35
167 170 165 162 160 161 161 160 156 142 109 78 80 58 46 96 58 50 52 80 111 97 139 123 86 15 333 340 345 345 327 317 311 311 248 12 195 29 345 319 314 344 16 336 336
167 169 168 169 168 164 171 169 173 167 73 96 89 99 73 98 108 56 49 61 64 130 152 135 229 305 309 346 346 333 325 314 302 264 227 0 344 33 48 1 19 52 348 311 320
160 162 167 172 177 180 172 168 169 149 96 99 100 112 78 64 64 42 34 70 83 84 57 313 251 284 346 339 334 332 330 326 100 136 77 208 0 16 85 95 113 179 280 301 303
160 159 166 167 168 160 156 154 132 104 141 124 118 112 85 69 51 46 43 54 76 222 340 316 250 282 312 335 323 338 357 337 340 8 209 317 317 166 122 119 91 319 306 303 298
150 162 169 168 167 163 162 155 119 145 141 143 138 142 147 71 46 41 32 59 54 38 16 20 252 318 324 344 338 1 23 58 212 317 297 318 203 193 195 201 226 301 315 323 325
143 148 158 172 174 174 170 158 129 150 152 154 158 172 144 84 47 7 23 42 39 27 27 1 2 345 348 324 338 349 22 48 3 334 309 294 277 223 241 250 295 312 314 320 326
152 154 158 160 167 172 174 160 151 158 165 178 190 185 192 175 304 353 18 28 30 12 8 353 329 338 340 240 328 305 332 336 356 61 288 303 304 299 228 261 305 322 325 330 329
165 165 166 173 175 176 181 168 164 174 177 183 201 189 200 222 257 295 15 5 11 357 1 353 324 317 329 277 278 246 229 168 5 296 182 290 254 273 282 293 317 317 323 323 319
171 179 174 173 174 180 186 185 183 187 195 200 200 202 190 205 220 217 245 286 333 339 357 353 321 324 318 311 338 290 239 308 358 304 270 279 278 297 258 305 315 314 312 309 308
179 186 178 179 185 186 185 179 177 176 186 197 199 202 201 193 197 214 242 303 321 325 339 343 324 331 318 267 280 312 291 311 315 314 251 249 266 301 278 307 312 320 317 314 305
180 174 183 187 188 182 184 174 172 173 175 178 179 178 191 196 226 249 283 295 299 309 316 322 295 284 264 284 289 289 291 295 293 280 269 265 282 303 312 308 315 319 321 317 309
179 195 190 192 186 189 187 183 177 175 184 182 190 200 202 217 263 276 285 288 296 305 308 305 294 299 297 296 291 293 294 294 283 286 265 293 292 307 309 310 316 318 319 318 317
205 201 192 180 180 180 184 182 187 195 194 197 221 226 252 286 290 294 299 302 303 300 302 303 301 306 307 314 307 301 300 297 300 303 297 300 300 304 299 301 304 314 326 323 319
204 206 201 197 193 197 200 200 206 211 221 240 255 259 287 297 296 300 301 303 297 293 292 291 298 304 295 305 308 304 253 312 312 305 300 294 305 296 294 299 298 321 322 320 320